カタログに戻る

CZ-4 DEB

運用中PO
NORAD 20862·DEBRIS·🇨🇳 China

打ち上げ Sep 3, 1990 から Taiyuan Satellite Launch Center

Loading…

次のパス (今後24時間)

TLE

最新Source: Space-Track

元期: Sep 14, 2026, 18:20 UTC

1 20862U 90081AA  26257.76413825  .00000087  00000-0  13787-3 0  9998
2 20862  98.9276  83.0611 0231158 329.2377  42.7669 13.62178693785384

AllMySatでCZ-4 DEBをリアルタイム追跡

Download on the App Store